| time (UTC) | temp C | wind direction | speed KPH | gust KPH | rain 1hr cm | rain 24hr cm | rain mn cm | humidity % | barometer mb |
| 20260901133929 | 18 | 348 | 0.0 | 0.0 | 0.00 | 0.00 | 0.00 | 76 | 1020.1 |
| 20260901133429 | 19 | 242 | 0.0 | 0.0 | 0.00 | 0.00 | 0.00 | 75 | 1020.2 |
| 20260901132929 | 19 | 286 | 0.0 | 0.0 | 0.00 | 0.00 | 0.00 | 74 | 1020.1 |
| 20260901132429 | 20 | 249 | 0.0 | 0.0 | 0.00 | 0.00 | 0.00 | 73 | 1019.9 |
| 20260901131929 | 20 | 246 | 0.0 | 0.0 | 0.00 | 0.00 | 0.00 | 73 | 1019.8 |
| 20260901131915 | 20 | 207 | 0.0 | 0.0 | 0.00 | 0.00 | 0.00 | 73 | 1019.9 |
| 20260901130925 | 20 | 353 | 0.0 | 0.0 | 0.00 | 0.00 | 0.00 | 74 | 1019.9 |
| 20260901130646 | 20 | 338 | 0.0 | 0.0 | 0.00 | 0.00 | 0.00 | 73 | 1020.1 |
| 20260901125923 | 20 | 311 | 0.0 | 0.0 | 0.00 | 0.00 | 0.00 | 74 | 1020.0 |
| 20260901125424 | 20 | 176 | 0.0 | 0.0 | 0.00 | 0.00 | 0.00 | 75 | 1020.1 |
| 20260901124920 | 19 | 74 | 0.0 | 0.0 | 0.00 | 0.00 | 0.00 | 75 | 1020.1 |
| 20260901124421 | 19 | 303 | 0.0 | 0.0 | 0.00 | 0.00 | 0.00 | 75 | 1020.1 |
| 20260901123921 | 19 | 324 | 0.0 | 0.0 | 0.00 | 0.00 | 0.00 | 73 | 1020.2 |
| 20260901123423 | 20 | 260 | 0.0 | 0.0 | 0.00 | 0.00 | 0.00 | 74 | 1020.1 |
| 20260901122922 | 20 | 249 | 0.0 | 0.0 | 0.00 | 0.00 | 0.00 | 73 | 1020.1 |
| 20260901122421 | 20 | 163 | 0.0 | 0.0 | 0.00 | 0.00 | 0.00 | 73 | 1020.0 |
| 20260901121920 | 20 | 161 | 0.0 | 0.0 | 0.00 | 0.00 | 0.00 | 72 | 1020.0 |
| 20260901121420 | 20 | 197 | 0.0 | 0.0 | 0.00 | 0.00 | 0.00 | 73 | 1020.1 |
| 20260901120921 | 20 | 329 | 0.0 | 0.0 | 0.00 | 0.00 | 0.00 | 73 | 1020.0 |
| 20260901120420 | 20 | 336 | 0.0 | 0.0 | 0.00 | 0.00 | 0.00 | 74 | 1020.0 |
| 20260901115919 | 20 | 207 | 0.0 | 0.0 | 0.00 | 0.00 | 0.00 | 73 | 1020.0 |
| 20260901115419 | 20 | 194 | 0.0 | 0.0 | 0.00 | 0.00 | 0.00 | 74 | 1020.0 |
| 20260901115139 | 19 | 269 | 0.0 | 0.0 | 0.00 | 0.00 | 0.00 | 73 | 1020.0 |
| 20260901114419 | 19 | 207 | 0.0 | 0.0 | 0.00 | 0.00 | 0.00 | 75 | 1020.0 |
| 20260901113931 | 19 | 114 | 0.0 | 0.0 | 0.00 | 0.00 | 0.00 | 76 | 1020.0 |
| 20260901113854 | 18 | 150 | 0.0 | 0.0 | 0.00 | 0.00 | 0.00 | 77 | 1020.1 |
| 20260901113130 | 18 | 242 | 0.0 | 0.0 | 0.00 | 0.00 | 0.00 | 78 | 1020.2 |
| 20260901112413 | 18 | 196 | 0.0 | 0.0 | 0.00 | 0.00 | 0.00 | 77 | 1020.3 |
| 20260901111913 | 19 | 129 | 0.0 | 0.0 | 0.00 | 0.00 | 0.00 | 77 | 1020.2 |
| 20260901111625 | 18 | 99 | 0.0 | 0.0 | 0.00 | 0.00 | 0.00 | 79 | 1020.3 |
| 20260901111515 | 18 | 170 | 0.0 | 0.0 | 0.00 | 0.00 | 0.00 | 79 | 1020.3 |
| 20260901110634 | 18 | 158 | 0.0 | 0.0 | 0.00 | 0.00 | 0.00 | 80 | 1020.3 |
| 20260901105913 | 17 | 160 | 0.0 | 0.0 | 0.00 | 0.00 | 0.00 | 80 | 1020.4 |
| 20260901105412 | 17 | 166 | 0.0 | 0.0 | 0.00 | 0.00 | 0.00 | 80 | 1020.4 |
| 20260901104908 | 17 | 186 | 0.0 | 0.0 | 0.00 | 0.00 | 0.00 | 80 | 1020.5 |
| 20260901104411 | 17 | 208 | 0.0 | 0.0 | 0.00 | 0.00 | 0.00 | 80 | 1020.5 |
| 20260901103909 | 17 | 267 | 0.0 | 0.0 | 0.00 | 0.00 | 0.00 | 81 | 1020.5 |
| 20260901103409 | 17 | 321 | 0.0 | 0.0 | 0.00 | 0.00 | 0.00 | 82 | 1020.5 |
| 20260901102921 | 17 | 141 | 0.0 | 0.0 | 0.00 | 0.00 | 0.00 | 82 | 1020.5 |
| 20260901102408 | 17 | 208 | 0.0 | 0.0 | 0.00 | 0.00 | 0.00 | 82 | 1020.6 |
| 20260901101909 | 17 | 180 | 0.0 | 0.0 | 0.00 | 0.00 | 0.00 | 81 | 1020.6 |
| 20260901101411 | 17 | 135 | 0.0 | 0.0 | 0.00 | 0.00 | 0.00 | 82 | 1020.5 |
| 20260901101139 | 17 | 209 | 0.0 | 0.0 | 0.00 | 0.00 | 0.00 | 82 | 1020.5 |
| 20260901100405 | 17 | 172 | 0.0 | 0.0 | 0.00 | 0.00 | 0.00 | 83 | 1020.6 |
| 20260901095904 | 16 | 176 | 0.0 | 0.0 | 0.00 | 0.00 | 0.00 | 83 | 1020.6 |
| 20260901095404 | 16 | 288 | 0.0 | 0.0 | 0.00 | 0.00 | 0.00 | 83 | 1020.5 |
| 20260901095121 | 16 | 247 | 0.0 | 0.0 | 0.00 | 0.00 | 0.00 | 83 | 1020.5 |
| 20260901094418 | 16 | 249 | 0.0 | 0.0 | 0.00 | 0.00 | 0.00 | 84 | 1020.5 |
| 20260901093904 | 16 | 163 | 0.0 | 0.0 | 0.00 | 0.00 | 0.00 | 84 | 1020.4 |
| 20260901093404 | 16 | 79 | 0.0 | 0.0 | 0.00 | 0.00 | 0.00 | 84 | 1020.4 |
| 20260901092918 | 16 | 176 | 0.0 | 0.0 | 0.00 | 0.00 | 0.00 | 85 | 1020.4 |
| 20260901092405 | 16 | 205 | 0.0 | 0.0 | 0.00 | 0.00 | 0.00 | 85 | 1020.5 |
| 20260901091900 | 16 | 228 | 0.0 | 0.0 | 0.00 | 0.00 | 0.00 | 85 | 1020.5 |
| 20260901091400 | 16 | 209 | 0.0 | 0.0 | 0.00 | 0.00 | 0.00 | 85 | 1020.4 |
| 20260901090914 | 16 | 141 | 0.0 | 0.0 | 0.00 | 0.00 | 0.00 | 85 | 1020.5 |
| 20260901090403 | 16 | 170 | 0.0 | 0.0 | 0.00 | 0.00 | 0.00 | 85 | 1020.4 |
| 20260901085900 | 16 | 170 | 0.0 | 0.0 | 0.00 | 0.00 | 0.00 | 85 | 1020.4 |
| 20260901085400 | 16 | 243 | 0.0 | 0.0 | 0.00 | 0.00 | 0.00 | 85 | 1020.3 |
| 20260901084901 | 16 | 260 | 0.0 | 0.0 | 0.00 | 0.00 | 0.00 | 86 | 1020.3 |
| 20260901084401 | 16 | 114 | 0.0 | 0.0 | 0.00 | 0.00 | 0.00 | 86 | 1020.3 |
| 20260901083900 | 16 | 157 | 0.0 | 0.0 | 0.00 | 0.00 | 0.00 | 86 | 1020.3 |
| 20260901083357 | 16 | 183 | 0.0 | 0.0 | 0.00 | 0.00 | 0.00 | 86 | 1020.2 |
| 20260901082856 | 16 | 186 | 0.0 | 0.0 | 0.00 | 0.00 | 0.00 | 86 | 1020.3 |
| 20260901082357 | 16 | 306 | 0.0 | 0.0 | 0.00 | 0.00 | 0.00 | 87 | 1020.3 |
| 20260901082343 | 16 | 178 | 0.0 | 0.0 | 0.00 | 0.00 | 0.00 | 87 | 1020.2 |
| 20260901081356 | 16 | 176 | 0.0 | 0.0 | 0.00 | 0.00 | 0.00 | 87 | 1020.1 |
| 20260901080856 | 15 | 142 | 0.0 | 0.0 | 0.00 | 0.00 | 0.00 | 87 | 1020.0 |
| 20260901080357 | 15 | 163 | 0.0 | 0.0 | 0.00 | 0.00 | 0.00 | 87 | 1020.0 |
| 20260901075856 | 15 | 190 | 0.0 | 0.0 | 0.00 | 0.00 | 0.00 | 87 | 1020.1 |
| 20260901075356 | 15 | 213 | 0.0 | 0.0 | 0.00 | 0.00 | 0.00 | 87 | 1020.0 |
| 20260901074852 | 15 | 188 | 0.0 | 0.0 | 0.00 | 0.00 | 0.00 | 87 | 1020.0 |
| 20260901074353 | 15 | 265 | 0.0 | 0.0 | 0.00 | 0.00 | 0.00 | 87 | 1019.9 |
| 20260901073853 | 15 | 225 | 0.0 | 0.0 | 0.00 | 0.00 | 0.00 | 88 | 1019.9 |
| 20260901073618 | 15 | 130 | 0.0 | 0.0 | 0.00 | 0.00 | 0.00 | 88 | 1019.9 |
| 20260901072853 | 15 | 200 | 0.0 | 0.0 | 0.00 | 0.00 | 0.00 | 88 | 1019.9 |
| 20260901072405 | 15 | 231 | 0.0 | 0.0 | 0.00 | 0.00 | 0.00 | 88 | 1019.8 |
| 20260901071854 | 15 | 229 | 0.0 | 0.0 | 0.00 | 0.00 | 0.00 | 88 | 1019.8 |
| 20260901071352 | 15 | 186 | 0.0 | 0.0 | 0.00 | 0.00 | 0.00 | 88 | 1019.8 |
| 20260901071122 | 15 | 166 | 0.0 | 0.0 | 0.00 | 0.00 | 0.00 | 88 | 1019.7 |
| 20260901070348 | 15 | 167 | 0.0 | 0.0 | 0.00 | 0.00 | 0.00 | 88 | 1019.7 |
| 20260901065849 | 15 | 167 | 0.0 | 0.0 | 0.00 | 0.00 | 0.00 | 88 | 1019.6 |
| 20260901065829 | 15 | 186 | 0.0 | 0.0 | 0.00 | 0.00 | 0.00 | 88 | 1019.7 |
| 20260901064849 | 15 | 186 | 0.0 | 0.0 | 0.00 | 0.00 | 0.00 | 88 | 1019.6 |
| 20260901064611 | 15 | 130 | 0.0 | 0.0 | 0.00 | 0.00 | 0.00 | 88 | 1019.6 |
| 20260901063849 | 15 | 115 | 0.0 | 0.0 | 0.00 | 0.00 | 0.00 | 88 | 1019.5 |
| 20260901063349 | 15 | 309 | 0.0 | 0.0 | 0.00 | 0.00 | 0.00 | 88 | 1019.5 |
| 20260901063106 | 15 | 127 | 0.0 | 0.0 | 0.00 | 0.00 | 0.00 | 89 | 1019.5 |
| 20260901062613 | 15 | 134 | 0.0 | 0.0 | 0.00 | 0.00 | 0.00 | 89 | 1019.4 |
| 20260901061847 | 15 | 161 | 0.0 | 0.0 | 0.00 | 0.00 | 0.00 | 89 | 1019.5 |
| 20260901061344 | 15 | 210 | 0.0 | 0.0 | 0.00 | 0.00 | 0.00 | 89 | 1019.4 |
| 20260901060844 | 15 | 231 | 0.0 | 0.0 | 0.00 | 0.00 | 0.00 | 89 | 1019.4 |
| 20260901060345 | 15 | 234 | 0.0 | 0.0 | 0.00 | 0.00 | 0.00 | 89 | 1019.1 |
| 20260901055844 | 15 | 221 | 0.0 | 0.0 | 0.00 | 0.00 | 0.00 | 89 | 1018.9 |
| 20260901055344 | 15 | 241 | 0.0 | 0.0 | 0.00 | 0.00 | 0.00 | 89 | 1019.0 |
| 20260901054844 | 15 | 207 | 0.0 | 0.0 | 0.00 | 0.00 | 0.00 | 89 | 1019.0 |
| 20260901054344 | 15 | 199 | 0.0 | 0.0 | 0.00 | 0.00 | 0.00 | 88 | 1018.9 |
| 20260901053845 | 15 | 184 | 0.0 | 0.0 | 0.00 | 0.00 | 0.00 | 89 | 1018.9 |
| 20260901053340 | 15 | 184 | 0.0 | 0.0 | 0.00 | 0.00 | 0.00 | 89 | 1019.0 |
| 20260901053107 | 15 | 190 | 0.0 | 0.0 | 0.00 | 0.00 | 0.00 | 89 | 1018.9 |
| 20260901052340 | 15 | 174 | 0.0 | 0.0 | 0.00 | 0.00 | 0.00 | 89 | 1018.9 |
| 20260901051853 | 15 | 182 | 0.0 | 0.0 | 0.00 | 0.00 | 0.00 | 89 | 1018.9 |
| 20260901051340 | 15 | 247 | 0.0 | 0.0 | 0.00 | 0.00 | 0.00 | 89 | 1019.0 |
| 20260901050840 | 15 | 250 | 0.0 | 0.0 | 0.00 | 0.00 | 0.00 | 89 | 1019.0 |
| 20260901050340 | 15 | 220 | 0.0 | 0.0 | 0.00 | 0.00 | 0.00 | 89 | 1019.0 |
| 20260901045841 | 15 | 206 | 0.0 | 0.0 | 0.00 | 0.00 | 0.00 | 89 | 1019.0 |
| 20260901045340 | 15 | 223 | 0.0 | 0.0 | 0.00 | 0.00 | 0.00 | 89 | 1018.9 |
| 20260901044840 | 15 | 243 | 0.0 | 0.0 | 0.00 | 0.00 | 0.00 | 89 | 1018.9 |
| 20260901044340 | 15 | 168 | 0.0 | 0.0 | 0.00 | 0.00 | 0.00 | 89 | 1018.9 |
| 20260901043840 | 15 | 153 | 0.0 | 0.0 | 0.00 | 0.00 | 0.00 | 89 | 1018.8 |
| 20260901043605 | 15 | 183 | 0.0 | 0.0 | 0.00 | 0.00 | 0.00 | 89 | 1018.8 |
| 20260901043103 | 15 | 194 | 0.0 | 0.0 | 0.00 | 0.00 | 0.00 | 89 | 1018.7 |
| 20260901042341 | 15 | 197 | 0.0 | 0.0 | 0.00 | 0.00 | 0.00 | 89 | 1018.6 |
| 20260901041840 | 15 | 237 | 0.0 | 0.0 | 0.00 | 0.00 | 0.00 | 89 | 1018.5 |
| 20260901041340 | 15 | 192 | 0.0 | 0.0 | 0.00 | 0.00 | 0.00 | 89 | 1018.5 |
| 20260901040851 | 15 | 191 | 0.0 | 0.0 | 0.00 | 0.00 | 0.00 | 89 | 1018.5 |
| 20260901040334 | 15 | 187 | 0.0 | 0.0 | 0.00 | 0.00 | 0.00 | 89 | 1018.5 |
| 20260901035836 | 15 | 193 | 0.0 | 0.0 | 0.00 | 0.00 | 0.00 | 89 | 1018.6 |
| 20260901035334 | 15 | 229 | 0.0 | 0.0 | 0.00 | 0.00 | 0.00 | 89 | 1018.5 |
| 20260901034834 | 15 | 205 | 0.0 | 0.0 | 0.00 | 0.00 | 0.00 | 89 | 1018.5 |
| 20260901034333 | 15 | 178 | 0.0 | 0.0 | 0.00 | 0.00 | 0.00 | 89 | 1018.6 |
| 20260901033832 | 15 | 178 | 0.0 | 0.0 | 0.00 | 0.00 | 0.00 | 89 | 1018.6 |
| 20260901033553 | 15 | 186 | 0.0 | 0.0 | 0.00 | 0.00 | 0.00 | 89 | 1018.6 |
| 20260901033055 | 15 | 169 | 0.0 | 0.0 | 0.00 | 0.00 | 0.00 | 89 | 1018.5 |
| 20260901032332 | 15 | 176 | 0.0 | 0.0 | 0.00 | 0.00 | 0.00 | 89 | 1018.5 |
| 20260901032048 | 15 | 175 | 0.0 | 0.0 | 0.00 | 0.00 | 0.00 | 90 | 1018.5 |
| 20260901031330 | 15 | 166 | 0.0 | 0.0 | 0.00 | 0.00 | 0.00 | 90 | 1018.5 |
| 20260901030823 | 15 | 176 | 0.0 | 0.0 | 0.00 | 0.00 | 0.00 | 90 | 1018.5 |
| 20260901030320 | 15 | 154 | 0.0 | 0.0 | 0.00 | 0.00 | 0.00 | 90 | 1018.4 |
| 20260901025811 | 15 | 132 | 0.0 | 0.0 | 0.00 | 0.00 | 0.00 | 90 | 1018.4 |
| 20260901025306 | 15 | 172 | 0.0 | 0.0 | 0.00 | 0.00 | 0.00 | 90 | 1018.4 |
| 20260901024755 | 15 | 161 | 0.0 | 0.0 | 0.00 | 0.00 | 0.00 | 90 | 1018.4 |
| 20260901024249 | 15 | 158 | 0.0 | 0.0 | 0.00 | 0.00 | 0.00 | 90 | 1018.2 |
| 20260901023744 | 15 | 159 | 0.0 | 0.0 | 0.00 | 0.00 | 0.00 | 90 | 1018.4 |
| 20260901023237 | 15 | 174 | 0.0 | 0.0 | 0.00 | 0.00 | 0.00 | 90 | 1018.2 |
| 20260901022733 | 15 | 230 | 0.0 | 0.0 | 0.00 | 0.00 | 0.00 | 90 | 1018.2 |
| 20260901022225 | 15 | 166 | 0.0 | 0.0 | 0.00 | 0.00 | 0.00 | 90 | 1018.1 |
| 20260901021722 | 15 | 165 | 0.0 | 0.0 | 0.00 | 0.00 | 0.00 | 90 | 1018.1 |
| 20260901021214 | 15 | 165 | 0.0 | 0.0 | 0.00 | 0.00 | 0.00 | 91 | 1018.1 |
| 20260901020707 | 15 | 178 | 0.0 | 0.0 | 0.00 | 0.00 | 0.00 | 90 | 1018.2 |
| 20260901020426 | 15 | 176 | 0.0 | 0.0 | 0.00 | 0.00 | 0.00 | 91 | 1018.2 |
| 20260901015914 | 15 | 176 | 0.0 | 0.0 | 0.00 | 0.00 | 0.00 | 90 | 1018.1 |
| 20260901015149 | 15 | 170 | 0.0 | 0.0 | 0.00 | 0.00 | 0.00 | 90 | 1018.1 |
| 20260901014644 | 15 | 170 | 0.0 | 0.0 | 0.00 | 0.00 | 0.00 | 90 | 1018.0 |
| 20260901014137 | 15 | 170 | 0.0 | 0.0 | 0.00 | 0.00 | 0.00 | 91 | 1018.1 |
| 20260901013631 | 15 | 163 | 0.0 | 0.0 | 0.00 | 0.00 | 0.00 | 91 | 1017.9 |
| 20260901013138 | 15 | 200 | 0.0 | 0.0 | 0.00 | 0.00 | 0.00 | 91 | 1017.9 |
| 20260901012838 | 14 | 165 | 0.0 | 0.0 | 0.00 | 0.00 | 0.00 | 91 | 1017.9 |
| 20260901012113 | 14 | 169 | 0.0 | 0.0 | 0.00 | 0.00 | 0.00 | 91 | 1017.9 |
| 20260901011608 | 14 | 186 | 0.0 | 0.0 | 0.00 | 0.00 | 0.00 | 91 | 1017.9 |
| 20260901011101 | 14 | 190 | 0.0 | 0.0 | 0.00 | 0.00 | 0.00 | 91 | 1017.9 |
| 20260901010556 | 14 | 203 | 0.0 | 0.0 | 0.00 | 0.00 | 0.00 | 90 | 1017.9 |
| 20260901005801 | 14 | 149 | 0.0 | 0.0 | 0.00 | 0.00 | 0.00 | 91 | 1017.9 |
| 20260901005050 | 13 | 149 | 0.0 | 0.0 | 0.00 | 0.00 | 0.00 | 90 | 1017.9 |
| 20260901004532 | 13 | 149 | 0.0 | 0.0 | 0.00 | 0.00 | 0.00 | 90 | 1017.9 |
| 20260901004026 | 13 | 149 | 0.0 | 0.0 | 0.00 | 0.00 | 0.00 | 90 | 1017.9 |
| 20260901003520 | 13 | 149 | 0.0 | 0.0 | 0.00 | 0.00 | 0.00 | 90 | 1017.9 |
| 20260901003017 | 13 | 149 | 0.0 | 0.0 | 0.00 | 0.00 | 0.00 | 90 | 1017.8 |
| 20260901002521 | 13 | 149 | 0.0 | 0.0 | 0.00 | 0.00 | 0.00 | 91 | 1017.8 |
| 20260901002016 | 13 | 149 | 0.0 | 0.0 | 0.00 | 0.00 | 0.00 | 90 | 1017.8 |
| 20260901001517 | 13 | 149 | 0.0 | 0.0 | 0.00 | 0.00 | 0.00 | 91 | 1017.8 |
| 20260901001013 | 13 | 149 | 0.0 | 0.0 | 0.00 | 0.00 | 0.00 | 90 | 1017.8 |
| 20260901000510 | 13 | 149 | 0.0 | 0.0 | 0.00 | 0.00 | 0.00 | 90 | 1017.8 |
| 20260901000007 | 13 | 149 | 0.0 | 0.0 | 0.00 | 0.00 | 0.00 | 90 | 1017.8 |
| 20260831235726 | 13 | 149 | 0.0 | 0.0 | 0.00 | 0.00 | 0.00 | 90 | 1017.7 |
| 20260831235004 | 13 | 149 | 0.0 | 0.0 | 0.00 | 0.00 | 0.00 | 90 | 1017.8 |
| 20260831234501 | 13 | 149 | 0.0 | 0.0 | 0.00 | 0.00 | 0.00 | 90 | 1017.8 |
| 20260831234000 | 13 | 149 | 0.0 | 0.0 | 0.00 | 0.00 | 0.00 | 90 | 1017.7 |
| 20260831233458 | 13 | 149 | 0.0 | 0.0 | 0.00 | 0.00 | 0.00 | 90 | 1017.7 |
| 20260831232958 | 13 | 149 | 0.0 | 0.0 | 0.00 | 0.00 | 0.00 | 90 | 1017.7 |
| 20260831232459 | 13 | 150 | 0.0 | 0.0 | 0.00 | 0.00 | 0.00 | 90 | 1017.8 |
| 20260831231958 | 13 | 146 | 0.0 | 0.0 | 0.00 | 0.00 | 0.00 | 90 | 1017.7 |
| 20260831231501 | 13 | 143 | 0.0 | 0.0 | 0.00 | 0.00 | 0.00 | 90 | 1017.7 |
| 20260831230958 | 13 | 143 | 0.0 | 0.0 | 0.00 | 0.00 | 0.00 | 90 | 1017.7 |
| 20260831230453 | 13 | 143 | 0.0 | 0.0 | 0.00 | 0.00 | 0.00 | 90 | 1017.7 |
| 20260831230217 | 13 | 144 | 0.0 | 0.0 | 0.00 | 0.00 | 0.00 | 90 | 1017.7 |
| 20260831225711 | 12 | 144 | 0.0 | 0.0 | 0.00 | 0.00 | 0.00 | 90 | 1017.7 |
| 20260831224953 | 12 | 144 | 0.0 | 0.0 | 0.00 | 0.00 | 0.00 | 90 | 1017.6 |
| 20260831224448 | 12 | 144 | 0.0 | 0.0 | 0.00 | 0.00 | 0.00 | 90 | 1017.7 |
| 20260831224208 | 12 | 144 | 0.0 | 0.0 | 0.00 | 0.00 | 0.00 | 90 | 1017.7 |
| 20260831223445 | 12 | 144 | 0.0 | 0.0 | 0.00 | 0.00 | 0.00 | 90 | 1017.7 |
| 20260831222940 | 12 | 144 | 0.0 | 0.0 | 0.00 | 0.00 | 0.00 | 90 | 1017.7 |
| 20260831222438 | 12 | 144 | 0.0 | 0.0 | 0.00 | 0.00 | 0.00 | 90 | 1017.7 |
| 20260831221936 | 12 | 144 | 0.0 | 0.0 | 0.00 | 0.00 | 0.00 | 90 | 1017.7 |
| 20260831221433 | 12 | 144 | 0.0 | 0.0 | 0.00 | 0.00 | 0.00 | 90 | 1017.5 |
| 20260831220932 | 12 | 144 | 0.0 | 0.0 | 0.00 | 0.00 | 0.00 | 90 | 1017.6 |
| 20260831220431 | 12 | 144 | 0.0 | 0.0 | 0.00 | 0.00 | 0.00 | 90 | 1017.6 |
| 20260831220157 | 12 | 144 | 0.0 | 0.0 | 0.00 | 0.00 | 0.00 | 90 | 1017.6 |
| 20260831215908 | 12 | 144 | 0.0 | 0.0 | 0.00 | 0.00 | 0.00 | 90 | 1017.6 |
| 20260831214927 | 12 | 145 | 0.0 | 0.0 | 0.00 | 0.00 | 0.00 | 90 | 1017.6 |
| 20260831214427 | 12 | 145 | 0.0 | 0.0 | 0.00 | 0.00 | 0.00 | 90 | 1017.5 |
| 20260831213928 | 12 | 145 | 0.0 | 0.0 | 0.00 | 0.00 | 0.00 | 90 | 1017.6 |
| 20260831213645 | 12 | 145 | 0.0 | 0.0 | 0.00 | 0.00 | 0.00 | 90 | 1017.5 |
| 20260831212927 | 12 | 145 | 0.0 | 0.0 | 0.00 | 0.00 | 0.00 | 90 | 1017.5 |
| 20260831212430 | 12 | 145 | 0.0 | 0.0 | 0.00 | 0.00 | 0.00 | 89 | 1017.5 |
| 20260831211929 | 12 | 145 | 0.0 | 0.0 | 0.00 | 0.00 | 0.00 | 90 | 1017.4 |
| 20260831211427 | 12 | 145 | 0.0 | 0.0 | 0.00 | 0.00 | 0.00 | 89 | 1017.4 |
| 20260831210927 | 12 | 145 | 0.0 | 0.0 | 0.00 | 0.00 | 0.00 | 89 | 1017.3 |
| 20260831210644 | 12 | 145 | 0.0 | 0.0 | 0.00 | 0.00 | 0.00 | 89 | 1017.3 |
| 20260831205927 | 12 | 145 | 0.0 | 0.0 | 0.00 | 0.00 | 0.00 | 89 | 1017.1 |
| 20260831205656 | 12 | 145 | 0.0 | 0.0 | 0.00 | 0.00 | 0.00 | 89 | 1017.1 |
| 20260831204928 | 12 | 144 | 0.0 | 0.0 | 0.00 | 0.00 | 0.00 | 89 | 1017.0 |
| 20260831204423 | 12 | 149 | 0.0 | 0.0 | 0.00 | 0.00 | 0.00 | 89 | 1017.0 |
| 20260831203924 | 12 | 149 | 0.0 | 0.0 | 0.00 | 0.00 | 0.00 | 89 | 1017.0 |
| 20260831203423 | 12 | 149 | 0.0 | 0.0 | 0.00 | 0.00 | 0.00 | 89 | 1017.0 |
| 20260831202924 | 13 | 149 | 0.0 | 0.0 | 0.00 | 0.00 | 0.00 | 89 | 1016.8 |
| 20260831202423 | 13 | 149 | 0.0 | 0.0 | 0.00 | 0.00 | 0.00 | 89 | 1016.7 |
| 20260831201924 | 13 | 149 | 0.0 | 0.0 | 0.00 | 0.00 | 0.00 | 89 | 1016.7 |
| 20260831201424 | 13 | 149 | 0.0 | 0.0 | 0.00 | 0.00 | 0.00 | 89 | 1016.6 |
| 20260831200924 | 13 | 147 | 0.0 | 0.0 | 0.00 | 0.00 | 0.00 | 89 | 1016.5 |
| 20260831200425 | 13 | 142 | 0.0 | 0.0 | 0.00 | 0.00 | 0.00 | 89 | 1016.5 |
| 20260831200147 | 13 | 142 | 0.0 | 0.0 | 0.00 | 0.00 | 0.00 | 89 | 1016.4 |
| 20260831195419 | 13 | 142 | 0.0 | 0.0 | 0.00 | 0.00 | 0.00 | 89 | 1016.4 |
| 20260831194919 | 13 | 142 | 0.0 | 0.0 | 0.00 | 0.00 | 0.00 | 89 | 1016.4 |
| 20260831194420 | 13 | 142 | 0.0 | 0.0 | 0.00 | 0.00 | 0.00 | 88 | 1016.3 |
| 20260831194147 | 13 | 142 | 0.0 | 0.0 | 0.00 | 0.00 | 0.00 | 89 | 1016.3 |
| 20260831193419 | 13 | 142 | 0.0 | 0.0 | 0.00 | 0.00 | 0.00 | 88 | 1016.1 |
| 20260831193145 | 13 | 142 | 0.0 | 0.0 | 0.00 | 0.00 | 0.00 | 88 | 1016.1 |
| 20260831192419 | 13 | 142 | 0.0 | 0.0 | 0.00 | 0.00 | 0.00 | 88 | 1016.0 |
| 20260831191919 | 13 | 142 | 0.0 | 0.0 | 0.00 | 0.00 | 0.00 | 88 | 1016.0 |
| 20260831191419 | 13 | 142 | 0.0 | 0.0 | 0.00 | 0.00 | 0.00 | 88 | 1015.8 |
| 20260831190920 | 13 | 142 | 0.0 | 0.0 | 0.00 | 0.00 | 0.00 | 88 | 1015.8 |
| 20260831190419 | 13 | 142 | 0.0 | 0.0 | 0.00 | 0.00 | 0.00 | 88 | 1015.8 |
| 20260831185919 | 13 | 142 | 0.0 | 0.0 | 0.00 | 0.00 | 0.00 | 88 | 1015.8 |
| 20260831185420 | 13 | 141 | 0.0 | 0.0 | 0.00 | 0.00 | 0.00 | 87 | 1015.7 |
| 20260831184919 | 13 | 142 | 0.0 | 0.0 | 0.00 | 0.00 | 0.00 | 87 | 1015.7 |
| 20260831184422 | 13 | 141 | 0.0 | 0.0 | 0.00 | 0.00 | 0.00 | 87 | 1015.6 |
| 20260831183919 | 13 | 142 | 0.0 | 0.0 | 0.00 | 0.00 | 0.00 | 87 | 1015.5 |
| 20260831183635 | 14 | 142 | 0.0 | 0.0 | 0.00 | 0.00 | 0.00 | 87 | 1015.4 |
| 20260831182913 | 14 | 142 | 0.0 | 0.0 | 0.00 | 0.00 | 0.00 | 86 | 1015.3 |
| 20260831182416 | 14 | 142 | 0.0 | 0.0 | 0.00 | 0.00 | 0.00 | 86 | 1015.2 |
| 20260831181913 | 14 | 142 | 0.0 | 0.0 | 0.00 | 0.00 | 0.00 | 86 | 1015.1 |
| 20260831181414 | 14 | 142 | 0.0 | 0.0 | 0.00 | 0.00 | 0.00 | 86 | 1014.9 |
| 20260831180913 | 15 | 142 | 0.0 | 0.0 | 0.00 | 0.00 | 0.00 | 86 | 1014.8 |
| 20260831180413 | 15 | 141 | 0.0 | 0.0 | 0.00 | 0.00 | 0.00 | 85 | 1014.8 |
| 20260831175914 | 15 | 141 | 0.0 | 0.0 | 0.00 | 0.00 | 0.00 | 85 | 1014.7 |
| 20260831175413 | 15 | 141 | 0.0 | 0.0 | 0.00 | 0.00 | 0.00 | 85 | 1014.6 |
| 20260831174913 | 15 | 164 | 0.0 | 0.0 | 0.00 | 0.00 | 0.00 | 85 | 1014.6 |
| 20260831174413 | 15 | 173 | 0.0 | 0.0 | 0.00 | 0.00 | 0.00 | 85 | 1014.6 |
| 20260831173916 | 15 | 211 | 0.0 | 0.0 | 0.00 | 0.00 | 0.00 | 84 | 1014.5 |
| 20260831173413 | 15 | 203 | 0.0 | 0.0 | 0.00 | 0.00 | 0.00 | 85 | 1014.6 |
| 20260831172913 | 15 | 184 | 0.0 | 0.0 | 0.00 | 0.00 | 0.00 | 85 | 1014.4 |
| 20260831172414 | 15 | 186 | 0.0 | 0.0 | 0.00 | 0.00 | 0.00 | 85 | 1014.3 |
| 20260831171914 | 15 | 224 | 0.0 | 0.0 | 0.00 | 0.00 | 0.00 | 85 | 1014.3 |
| 20260831171411 | 15 | 149 | 0.0 | 0.0 | 0.00 | 0.00 | 0.00 | 85 | 1014.2 |
| 20260831170913 | 15 | 260 | 0.0 | 0.0 | 0.00 | 0.00 | 0.00 | 85 | 1014.3 |
| 20260831170409 | 15 | 205 | 0.0 | 0.0 | 0.00 | 0.00 | 0.00 | 85 | 1014.2 |
| 20260831170132 | 16 | 226 | 0.0 | 0.0 | 0.00 | 0.00 | 0.00 | 85 | 1014.2 |
| 20260831165407 | 16 | 153 | 0.0 | 0.0 | 0.00 | 0.00 | 0.00 | 85 | 1014.2 |
| 20260831164905 | 16 | 163 | 0.0 | 0.0 | 0.00 | 0.00 | 0.00 | 85 | 1014.2 |
| 20260831164358 | 16 | 163 | 0.0 | 0.0 | 0.00 | 0.00 | 0.00 | 85 | 1014.0 |
| 20260831163852 | 16 | 155 | 0.0 | 0.0 | 0.00 | 0.00 | 0.00 | 85 | 1014.1 |
| 20260831163346 | 16 | 163 | 0.0 | 0.0 | 0.00 | 0.00 | 0.00 | 85 | 1013.7 |
| 20260831162841 | 16 | 195 | 0.0 | 0.0 | 0.00 | 0.00 | 0.00 | 85 | 1013.7 |
| 20260831162554 | 16 | 164 | 0.0 | 0.0 | 0.00 | 0.00 | 0.00 | 84 | 1013.5 |
| 20260831161831 | 16 | 182 | 0.0 | 0.0 | 0.00 | 0.00 | 0.00 | 84 | 1013.4 |
| 20260831161322 | 16 | 218 | 0.0 | 0.0 | 0.00 | 0.00 | 0.00 | 84 | 1013.4 |
| 20260831160817 | 16 | 158 | 0.0 | 0.0 | 0.00 | 0.00 | 0.00 | 84 | 1013.4 |
| 20260831160310 | 16 | 213 | 0.0 | 0.0 | 0.00 | 0.00 | 0.00 | 84 | 1013.7 |
| 20260831160247 | 16 | 203 | 0.0 | 0.0 | 0.00 | 0.00 | 0.00 | 83 | 1013.7 |
| 20260831155259 | 16 | 265 | 0.0 | 0.0 | 0.00 | 0.00 | 0.00 | 83 | 1013.7 |
| 20260831154752 | 16 | 174 | 0.0 | 0.0 | 0.00 | 0.00 | 0.00 | 83 | 1013.6 |
| 20260831154247 | 16 | 149 | 0.0 | 0.0 | 0.00 | 0.00 | 0.00 | 84 | 1013.4 |
| 20260831153740 | 16 | 161 | 0.0 | 0.0 | 0.00 | 0.00 | 0.00 | 84 | 1013.4 |
| 20260831153453 | 16 | 180 | 0.0 | 0.0 | 0.00 | 0.00 | 0.00 | 84 | 1013.4 |
| 20260831152729 | 16 | 283 | 0.0 | 0.0 | 0.00 | 0.00 | 0.00 | 84 | 1013.4 |
| 20260831152222 | 16 | 243 | 0.0 | 0.0 | 0.00 | 0.00 | 0.00 | 84 | 1013.3 |
| 20260831151717 | 16 | 284 | 0.0 | 0.0 | 0.00 | 0.00 | 0.00 | 84 | 1013.3 |
| 20260831151210 | 16 | 226 | 0.0 | 0.0 | 0.00 | 0.00 | 0.00 | 84 | 1013.2 |
| 20260831151149 | 16 | 222 | 0.0 | 0.0 | 0.00 | 0.00 | 0.00 | 85 | 1013.3 |
| 20260831150159 | 16 | 224 | 0.0 | 0.0 | 0.00 | 0.00 | 0.00 | 84 | 1013.3 |
| 20260831145652 | 16 | 195 | 0.0 | 0.0 | 0.00 | 0.00 | 0.00 | 84 | 1012.9 |
| 20260831145147 | 16 | 155 | 0.0 | 0.0 | 0.00 | 0.00 | 0.00 | 84 | 1013.0 |
| 20260831144640 | 16 | 151 | 0.0 | 0.0 | 0.00 | 0.00 | 0.00 | 84 | 1013.0 |
| 20260831144136 | 16 | 159 | 0.0 | 0.0 | 0.00 | 0.00 | 0.00 | 84 | 1013.1 |
| 20260831143628 | 16 | 215 | 0.0 | 0.0 | 0.00 | 0.00 | 0.00 | 83 | 1013.0 |
| 20260831143118 | 17 | 144 | 0.0 | 0.0 | 0.00 | 0.00 | 0.00 | 83 | 1012.7 |
| 20260831142612 | 17 | 183 | 0.0 | 0.0 | 0.00 | 0.00 | 0.00 | 83 | 1012.7 |
| 20260831142335 | 17 | 167 | 0.0 | 0.0 | 0.00 | 0.00 | 0.00 | 82 | 1012.4 |
| 20260831141601 | 17 | 143 | 0.0 | 0.0 | 0.00 | 0.00 | 0.00 | 82 | 1012.3 |
| 20260831141055 | 17 | 211 | 0.0 | 0.0 | 0.00 | 0.00 | 0.00 | 81 | 1012.4 |
| 20260831140555 | 17 | 267 | 0.0 | 0.0 | 0.00 | 0.00 | 0.00 | 79 | 1012.1 |
| 20260831140106 | 18 | 182 | 0.0 | 0.0 | 0.00 | 0.00 | 0.00 | 77 | 1012.3 |
| 20260831135811 | 19 | 230 | 0.0 | 0.0 | 0.00 | 0.00 | 0.00 | 72 | 1012.3 |
| 20260831135536 | 19 | 124 | 0.0 | 0.0 | 0.00 | 0.00 | 0.00 | 71 | 1011.9 |
| 20260831134551 | 20 | 171 | 0.0 | 0.0 | 0.00 | 0.00 | 0.00 | 71 | 1011.8 |
| 20260831134049 | 20 | 92 | 0.0 | 0.0 | 0.00 | 0.00 | 0.00 | 70 | 1011.7 |